Theta_e
337 343 348 349 348 347 345 343 342 343 342 343 343 344 343 342 341 339 339 339 337 336 334 334 338 339 339 339 340 341 340 338 337 336 335 335 335 334 332 331 332 329 332
340 345 346 349 348 345 343 342 343 342 342 343 344 342 341 340 339 337 337 335 335 333 333 333 334 337 338 338 340 338 336 334 333 332 332 332 332 332 332 331 332 329 331
341 345 346 347 347 345 343 342 341 341 340 340 340 340 340 339 337 336 336 335 335 335 335 335 336 336 335 338 340 338 335 333 331 330 329 329 329 331 331 330 330 330 330
343 344 345 343 345 344 342 341 340 341 341 339 339 342 340 337 336 336 334 336 334 333 333 335 333 334 334 339 340 338 333 331 329 327 326 326 326 329 329 329 328 329 328
342 343 342 342 344 343 341 340 340 340 340 338 341 339 340 338 336 335 335 334 333 332 332 333 333 332 333 337 339 335 332 330 327 325 325 325 326 327 328 327 326 326 327
341 341 341 344 344 341 340 338 338 337 336 337 339 338 341 339 336 336 335 334 332 331 331 332 332 331 332 334 337 335 332 329 326 324 324 324 324 326 325 325 325 326 325
339 340 341 342 343 342 340 339 339 338 338 337 339 340 342 339 336 335 334 333 330 330 330 330 330 329 330 332 334 333 331 327 324 324 323 323 323 324 324 324 323 323 323
337 339 340 336 338 340 340 340 340 340 339 336 338 341 342 339 337 335 335 331 331 332 330 329 328 327 329 329 331 331 329 326 323 324 323 324 324 324 322 322 321 321 323
338 338 339 339 337 334 337 336 337 338 335 338 337 338 341 339 338 336 336 334 331 332 331 330 327 326 327 327 328 330 327 323 323 324 321 323 325 322 322 321 320 320 320
335 338 337 338 338 337 337 330 332 334 335 335 334 332 330 333 334 333 330 333 334 333 332 330 329 326 325 325 324 327 325 323 324 323 324 323 325 321 321 320 320 319 320
333 335 336 336 336 336 335 331 328 330 332 331 330 327 326 329 329 329 327 331 335 335 333 331 330 329 328 325 324 324 323 324 322 323 323 321 325 322 322 322 320 319 319
330 332 334 335 335 335 333 334 333 333 334 333 331 329 328 328 327 326 323 323 329 331 333 333 331 330 327 325 323 321 322 321 322 322 322 321 326 325 326 325 323 321 320
331 332 333 333 334 334 333 334 332 332 332 331 330 328 327 325 325 326 325 325 326 323 330 331 330 329 327 325 323 322 321 320 320 322 321 321 325 326 325 328 326 325 322
330 332 333 333 332 333 334 333 332 330 330 330 329 327 326 324 323 323 324 324 325 325 327 328 327 326 325 323 323 323 322 322 321 320 320 317 323 326 326 326 329 327 325
326 329 332 333 332 331 332 333 332 330 330 330 328 327 325 324 323 322 322 323 323 324 324 325 325 324 323 322 321 321 321 322 322 320 319 314 318 324 326 327 327 329 328
326 327 330 331 333 332 331 332 331 331 331 329 328 327 325 324 323 322 321 321 322 323 324 323 324 323 322 321 320 320 320 321 322 321 319 319 317 321 324 327 327 327 331
326 328 327 329 332 332 332 332 332 330 330 329 329 328 326 324 323 323 322 321 321 322 322 322 322 322 321 321 319 320 321 322 322 322 320 319 319 317 321 325 326 326 327
326 326 328 328 329 331 332 332 332 331 330 328 329 329 327 326 324 323 322 322 322 321 321 321 321 321 320 320 320 319 320 322 322 321 321 320 319 318 318 321 324 326 326
323 325 326 327 327 329 331 332 332 332 330 329 330 329 327 326 325 324 323 323 323 322 321 321 320 320 320 319 318 318 318 319 320 320 319 320 319 318 319 319 320 321 325
319 324 326 327 327 326 328 330 331 331 330 330 329 329 328 326 325 324 324 323 322 321 321 320 320 320 320 319 317 316 319 320 320 320 321 320 320 319 319 319 319 318 318
311 320 323 324 326 326 323 324 325 325 327 328 329 330 329 328 326 325 323 322 320 319 320 319 319 318 317 318 316 317 317 318 318 320 321 321 320 319 320 318 319 319 318
309 312 318 323 325 325 325 325 326 326 327 328 329 329 329 329 327 326 325 324 323 321 321 320 318 318 318 317 314 312 310 314 315 318 320 320 320 320 319 318 318 318 318
307 308 313 320 323 325 326 325 324 324 323 324 326 326 328 328 328 326 326 326 325 323 323 322 320 317 316 317 317 315 306 305 307 311 313 318 318 318 318 318 316 316 317
304 305 308 315 322 324 326 325 323 322 321 324 325 326 327 328 327 327 326 325 325 324 322 323 322 321 319 316 313 315 317 315 307 306 309 311 312 313 315 316 315 315 315
300 303 307 312 315 321 323 325 323 322 324 324 324 324 325 326 327 326 326 326 325 324 324 322 322 320 320 318 318 313 313 314 314 309 308 311 312 314 314 314 315 315 314
298 300 300 301 301 303 311 317 321 321 321 321 321 321 322 323 323 324 325 325 325 324 323 322 322 321 319 319 319 318 315 312 311 311 309 311 313 316 314 313 312 315 315
Wind_Speed
5 6 9 12 13 13 11 10 10 10 8 10 13 12 13 13 14 14 13 13 13 11 10 10 12 14 12 11 11 14 16 16 17 16 16 15 15 15 15 14 12 13 14
9 7 10 11 11 10 8 9 8 9 6 12 13 13 12 12 12 12 11 12 12 11 10 10 11 10 9 8 12 13 15 14 15 15 14 14 14 14 14 12 11 12 14
9 8 10 10 10 8 7 7 7 6 6 9 9 11 12 11 11 11 11 11 12 10 10 13 9 8 6 5 12 13 13 13 15 14 12 9 10 12 12 11 12 11 13
9 8 8 9 9 8 8 7 6 6 6 8 8 11 13 11 11 10 11 9 10 10 9 9 7 7 6 10 13 14 14 13 14 11 8 8 8 11 10 10 10 10 11
9 8 6 8 8 9 9 8 7 5 7 6 9 6 11 13 10 9 9 9 9 8 9 7 7 7 9 10 12 14 14 12 11 9 8 7 6 10 10 10 9 8 9
8 8 8 8 9 8 9 9 8 7 6 4 9 9 11 12 11 9 8 9 8 7 8 6 6 5 5 7 8 13 12 11 8 7 7 8 6 7 8 7 7 8 7
8 7 8 9 9 8 7 7 6 8 7 5 3 9 12 14 12 9 8 8 7 7 7 6 4 3 3 5 6 10 11 9 6 5 6 6 5 5 6 6 7 5 6
10 7 6 8 8 8 7 6 5 8 7 8 6 4 13 12 13 9 9 8 7 8 6 5 4 2 2 4 4 7 8 7 5 6 6 4 4 5 4 4 4 4 5
8 8 7 7 7 8 7 6 6 6 8 8 8 6 6 11 11 9 6 7 8 8 7 6 4 3 2 2 3 4 5 6 4 2 4 3 2 4 4 3 3 3 4
8 8 8 7 7 6 6 8 7 5 4 4 6 5 5 8 8 8 9 6 8 10 8 7 5 3 2 1 2 1 5 4 2 3 2 2 4 2 4 3 2 2 3
6 8 8 8 8 8 7 6 7 8 6 5 5 7 5 2 3 6 4 8 11 11 10 8 7 5 3 0 1 2 3 2 3 3 2 4 6 4 6 5 5 4 4
10 9 8 10 9 8 7 8 7 6 5 6 5 5 3 4 3 4 5 6 6 10 12 11 8 5 4 3 2 2 2 3 3 4 3 7 8 7 7 10 9 8 7
12 8 9 9 10 10 8 6 4 4 5 4 6 6 5 3 3 3 3 3 3 4 3 3 3 3 4 3 3 3 3 3 3 3 5 8 9 9 8 10 11 10 8
11 13 11 10 9 11 7 7 7 6 6 6 7 8 6 4 5 5 4 5 4 3 4 4 4 5 5 5 6 6 6 5 4 4 5 9 11 12 11 10 12 14 12
10 11 13 13 11 10 11 8 8 8 7 8 8 9 7 7 7 6 6 5 5 5 6 6 6 6 6 7 6 7 8 8 7 5 4 8 11 13 14 13 12 13 13
11 12 12 14 14 12 11 11 9 8 9 8 8 9 11 8 8 7 7 7 7 7 7 7 7 7 7 6 8 8 9 8 9 8 6 7 13 14 15 16 15 15 15
12 12 13 13 13 14 15 13 10 9 7 9 9 11 12 11 11 10 8 8 8 7 9 7 7 7 7 7 9 9 8 10 9 10 8 8 8 13 15 17 17 17 16
12 12 12 10 13 14 13 11 10 8 8 9 9 9 13 13 12 10 9 9 8 6 7 8 8 8 8 8 8 9 9 9 11 11 9 8 8 8 10 18 18 19 19
13 13 13 12 14 14 13 10 11 12 10 10 9 9 12 13 13 11 9 9 10 8 8 8 8 9 8 8 9 9 9 8 11 8 11 12 12 10 8 13 17 18 20
11 11 12 10 14 13 10 9 8 8 9 10 10 9 12 10 13 11 10 10 9 8 9 9 11 9 10 9 8 9 9 9 9 9 12 11 12 13 12 13 10 11 19
9 11 13 11 13 9 7 7 8 11 10 9 9 11 13 12 13 12 9 8 8 10 11 10 9 11 8 8 7 9 10 11 12 12 11 11 14 13 13 12 9 8 9
13 11 11 12 11 11 8 6 5 5 7 8 8 11 13 12 12 12 12 10 11 9 11 11 11 8 8 8 6 2 5 5 8 11 10 11 14 10 12 13 13 13 11
9 9 9 10 10 10 13 6 3 2 0 3 7 7 8 12 11 12 12 10 10 10 9 11 12 13 10 6 12 7 3 6 2 2 9 9 12 9 10 12 13 13 14
9 8 6 5 6 7 8 8 11 8 8 6 6 5 7 11 12 12 13 12 12 9 11 11 10 12 10 10 4 10 13 6 4 5 3 5 8 10 11 9 11 12 13
13 12 10 9 9 3 5 7 5 7 4 2 2 5 6 7 10 10 11 12 11 9 12 12 11 11 10 10 10 4 10 10 11 10 10 8 5 8 9 9 10 10 12
14 14 14 14 15 14 12 8 4 2 2 2 2 2 3 3 4 8 10 10 11 10 11 11 12 14 12 12 10 10 9 6 7 9 11 12 14 11 8 8 9 9 10
Wind_Direction
177 168 161 150 144 138 140 137 136 143 152 146 128 114 108 109 107 105 106 100 94 97 101 101 83 77 66 65 79 78 73 73 75 72 67 63 64 68 70 75 73 74 78
149 163 154 155 145 137 143 140 135 146 156 130 123 121 113 110 107 114 119 115 104 109 102 107 100 78 65 75 99 94 89 84 79 73 64 66 68 70 77 84 80 80 77
147 156 157 150 131 138 147 144 149 144 152 132 127 136 134 121 122 125 119 119 113 115 118 122 110 76 51 67 122 106 98 88 83 76 69 68 70 71 75 75 74 81 78
147 151 154 144 140 154 155 148 153 154 145 153 168 158 132 129 132 140 129 127 120 116 119 115 93 64 66 86 124 111 101 93 85 84 78 72 72 64 77 74 75 67 79
144 148 148 147 156 158 156 151 158 152 160 188 161 132 141 137 142 141 133 130 124 128 130 122 93 70 32 40 112 111 103 94 88 83 81 78 73 88 80 66 65 77 73
151 152 151 149 158 167 162 162 166 158 172 164 153 162 160 139 147 152 143 131 142 142 124 127 114 86 55 42 107 113 111 106 98 87 83 65 67 78 84 81 85 74 70
160 163 163 160 160 165 176 181 183 165 179 189 200 172 170 153 149 162 158 162 155 129 138 131 137 110 80 57 86 109 113 114 109 99 96 85 77 64 80 82 82 94 98
171 171 173 173 166 165 179 190 194 181 187 189 242 208 145 157 155 169 184 174 158 143 150 145 138 136 106 66 65 110 125 125 120 114 103 108 98 89 81 91 103 108 102
174 176 180 183 183 174 177 188 202 244 198 213 197 246 185 171 161 172 180 171 174 158 165 164 158 146 137 58 56 123 129 121 129 126 133 136 161 135 112 109 124 127 137
183 189 191 189 185 194 193 185 198 226 250 199 191 216 164 159 180 174 176 189 183 174 180 179 180 182 166 117 52 87 146 120 155 171 178 168 201 234 149 151 143 163 153
205 205 199 199 196 193 193 205 197 195 214 220 203 195 194 205 207 185 198 210 204 182 187 194 196 200 202 30 342 7 172 190 192 209 216 224 232 219 188 187 190 195 196
208 204 208 212 210 201 199 198 200 206 203 195 201 227 227 220 220 210 215 251 271 199 188 193 207 217 216 223 231 261 229 233 241 233 232 235 239 249 229 198 191 202 202
218 208 204 211 216 207 206 203 204 201 199 205 208 202 207 231 250 243 234 243 238 217 192 195 206 225 225 229 230 229 240 244 246 244 241 239 244 248 264 228 213 201 209
215 223 216 211 215 215 207 206 209 206 205 203 206 202 203 204 213 235 238 236 237 230 229 226 229 232 238 240 242 243 238 241 239 242 245 240 242 248 251 257 231 221 206
230 219 217 216 215 217 212 214 218 217 213 213 205 204 200 210 212 209 228 242 241 230 228 231 239 243 245 244 243 245 249 249 248 241 243 234 240 243 248 250 254 233 222
246 232 218 212 214 213 214 215 217 215 216 210 213 213 206 207 214 215 216 226 241 236 235 235 237 243 250 254 259 249 251 254 254 247 241 245 241 242 244 249 250 254 238
240 237 216 217 210 210 216 218 221 224 211 216 216 214 211 209 210 213 223 220 225 242 247 241 241 243 250 252 254 259 257 255 254 249 242 241 245 239 240 242 248 250 254
247 230 228 213 210 212 214 215 216 212 214 221 214 211 212 213 214 213 216 228 223 214 226 236 241 246 249 250 255 251 253 254 256 252 243 240 238 239 238 239 238 242 244
239 238 233 213 214 209 214 215 217 220 219 224 217 213 209 212 211 214 216 220 214 220 221 227 235 236 242 243 246 250 250 246 251 249 245 239 237 232 232 234 230 231 235
244 232 237 220 218 206 207 208 216 222 226 225 223 217 211 209 209 213 220 216 209 216 221 223 233 229 241 247 248 250 251 245 243 244 250 242 237 231 228 229 227 229 228
252 239 230 220 221 194 195 205 219 221 221 227 229 222 216 214 210 210 220 220 204 214 218 215 222 233 237 234 257 260 254 244 242 241 243 240 241 234 231 225 224 227 227
260 245 241 220 217 203 205 204 205 196 221 218 216 217 216 217 214 214 217 221 214 215 223 220 212 225 231 192 212 223 279 252 239 238 238 239 243 239 236 232 229 225 225
271 262 246 235 223 207 207 193 183 177 276 205 223 224 220 217 215 216 225 227 224 227 236 223 218 221 237 208 210 224 213 230 322 213 236 238 239 232 236 237 231 229 227
335 322 290 260 230 218 213 207 207 211 222 228 222 217 215 205 213 213 219 221 226 218 229 236 228 226 223 234 204 225 239 234 219 283 225 251 236 235 236 234 235 232 228
9 14 22 36 30 322 197 211 209 223 245 253 228 232 231 226 224 223 225 233 231 230 235 233 233 225 228 232 228 201 230 239 236 241 273 250 230 232 232 230 227 230 224
21 26 29 40 40 35 40 37 39 18 327 324 300 276 263 240 227 230 232 230 234 239 238 237 235 235 230 234 235 235 220 213 213 225 238 253 256 255 228 224 229 232 230